Home   Weather   Qikiqtarjuaq   Past weeks

Flag for Canada Past Weather in Qikiqtarjuaq, Nunavut, Canada — Yesterday and Last 2 Weeks

Now
-6 °F

Clear.


Feels Like: -17 °F
Forecast: -8 / 6 °F
Wind: 5 mph from North

Location: Broughton Island Airport

Current Time: Dec 11, 2016 at 3:05:03 am

Latest Report: Dec 11, 2016 at 2:00 am


Visibility: 9 mi

Pressure: 29.74 "Hg

Humidity: 70%

Dew Point: -13 °F

Location of QikiqtarjuaqLocation

Past Weather in Qikiqtarjuaq — Graph

°F

Qikiqtarjuaq Temperature Yesterday

Maximum temperature yesterday: -6 °F (at 7:00 pm)
Minimum temperature yesterday: -13 °F (at 4:00 am)
Average temperature yesterday: -10 °F

High & Low Weather Summary for the Past Weeks

 TemperatureHumidityPressure
High19 °F (Dec 3, 8:00 pm)100% (Dec 2, 6:00 am)30.35 "Hg (Dec 2, 6:00 am)
Low-13 °F (Dec 9, 10:00 am)54% (Dec 9, 7:00 pm)29.70 "Hg (Dec 9, 12:00 am)
Average6 °F80%30.01 "Hg
* Reported Nov 26 2:00 am — Dec 11 2:00 am, Qikiqtarjuaq, Weather by CustomWeather, © 2016

Note: Actual official high and low records may vary slightly from our data, if they occured in-between our weather recording intervals... More about our weather records

Advertising

Qikiqtarjuaq Weather History for the Previous 24 Hours

Scroll right to see more
 ConditionsComfort  
Time TempWeatherWind HumidityBarometerVisibility
2:00 am
Sun, Dec 11
-6 °FClear.5 mph70%29.74 "Hg9 mi
1:00 am-4 °FPassing clouds.6 mph65%29.73 "Hg9 mi
12:00 am-6 °FPassing clouds.10 mph70%29.74 "Hg9 mi
11:00 pm
Sat, Dec 10
-11 °FClear.No wind84%29.76 "Hg9 mi
10:00 pm-11 °FClear.3 mph76%29.78 "Hg9 mi
9:00 pm-8 °FClear.2 mph77%29.78 "Hg9 mi
8:00 pm-6 °FClear.6 mph70%29.79 "Hg9 mi
7:00 pm-6 °FClear.9 mph70%29.81 "Hg9 mi
6:00 pm-8 °FClear.7 mph70%29.80 "Hg9 mi
4:00 pm-11 °FSnow flurries. Clear.5 mph76%29.82 "Hg15 mi
3:00 pm-9 °FSnow flurries. Clear.No wind58%29.81 "Hg15 mi
2:00 pm-13 °FSnow flurries. Clear.No wind63%29.79 "Hg15 mi
1:00 pm-9 °FSnow flurries. Passing clouds.No wind58%29.80 "Hg15 mi
12:00 pm-9 °FSnow flurries. Passing clouds.2 mph64%29.79 "Hg15 mi
11:00 am-11 °FSnow flurries. Partly sunny.2 mph63%29.80 "Hg15 mi
10:00 am-11 °FSnow flurries. Passing clouds.3 mph58%29.81 "Hg15 mi
9:12 am-9 °FSnow flurries. Passing clouds.No wind58%29.81 "Hg15 mi
8:00 am-9 °FClear.5 mph58%29.82 "Hg9 mi
7:00 am-9 °FClear.No wind58%29.83 "Hg9 mi
6:00 am-9 °FClear.3 mph70%29.83 "Hg9 mi
5:00 am-11 °FClear.2 mph70%29.82 "Hg9 mi
4:00 am-13 °FClear.No wind63%29.83 "Hg9 mi
3:00 am-11 °FClear.2 mph63%29.82 "Hg9 mi
Weather by CustomWeather, © 2016

See weather overviewHow to use our weather pages